Weather History for Louisa, VA

Change the Weather History Date:

Monday, March 4, 2013

  Actual Average (KCHO) Record (KCHO)
Temperature  
Mean Temperature 34 °F 42 °F  
Max Temperature 50 °F 53 °F 81 °F (1946)
Min Temperature 17 °F 31 °F 1 °F (2014)
Degree Days  
Heating Degree Days 32 23  
Month to date heating degree days 93  
Since 1 July heating degree days 3505  
Cooling Degree Days 0 0  
Month to date cooling degree days 0  
Year to date cooling degree days 0  
Moisture  
Dew Point 13 °F    
Average Humidity 49    
Maximum Humidity 86    
Minimum Humidity 22    
Precipitation  
Precipitation 0.00 in 0.10 in 3.00 in (1993)
Month to date precipitation 0.39  
Year to date precipitation 5.86  
Sea Level Pressure  
Sea Level Pressure 29.97 in    
Wind  
Wind Speed 4 mph (WNW)    
Max Wind Speed 16 mph    
Max Gust Speed 23 mph    
Visibility 10 miles    
Events      
T = Trace of Precipitation, MM = Missing Value Source: NWS Daily Summary

Daily Weather History Graph

Daily Weather History Graph

Search for Another Location

Airport:

Trip Planner

Search our weather history database for the weather conditions in past years. The results will help you decide how hot, cold, wet, or windy it might be!

Date:

Astronomy

Mar. 04, 2013 Rise Set
Actual Time 6:38 AM EST 6:08 PM EST
Civil Twilight 6:12 AM EST 6:34 PM EST
Nautical Twilight 5:42 AM EST 7:05 PM EST
Astronomical Twilight 5:11 AM EST 7:36 PM EST
Moon 12:42 AM EST (3/4) 10:52 AM EST (3/4)
Length of Visible Light 12h 22m
Length of Day
11h 29m
Waning Gibbous, 52% of the Moon is Illuminated
Mar 4
Waning Gibbous
Mar 4
Last Quarter
Mar 11
New
Mar 19
First Quarter
Mar 27
Full

Hourly Weather History & Observations

Time (EST) Temp. Windchill Dew Point Humidity Pressure Visibility Wind Dir Wind Speed Gust Speed Precip Events Conditions
12:15 AM 24.8 °F - 15.8 °F 69% 29.92 in 10.0 mi Calm Calm - N/A   Clear
12:35 AM 21.2 °F - 15.8 °F 80% 29.92 in 10.0 mi Calm Calm - N/A   Clear
12:55 AM 23.0 °F - 15.8 °F 74% 29.92 in 10.0 mi Calm Calm - N/A   Clear
1:15 AM 21.2 °F - 15.8 °F 80% 29.92 in 10.0 mi Calm Calm - N/A   Clear
1:35 AM 21.2 °F - 15.8 °F 80% 29.92 in 10.0 mi Calm Calm - N/A   Clear
1:55 AM 19.4 °F - 15.8 °F 86% 29.92 in 10.0 mi Calm Calm - N/A   Clear
2:15 AM 21.2 °F 16.4 °F 15.8 °F 80% 29.92 in 10.0 mi West 3.5 mph - N/A   Clear
2:55 AM 19.4 °F 14.3 °F 14.0 °F 80% 29.92 in 10.0 mi West 3.5 mph - N/A   Clear
3:15 AM 23.0 °F 18.4 °F 14.0 °F 68% 29.92 in 10.0 mi WNW 3.5 mph - N/A   Clear
3:55 AM 23.0 °F 17.0 °F 14.0 °F 68% 29.93 in 10.0 mi West 4.6 mph - N/A   Clear
4:15 AM 21.2 °F 16.4 °F 15.8 °F 80% 29.94 in 10.0 mi West 3.5 mph - N/A   Clear
4:35 AM 21.2 °F 16.4 °F 14.0 °F 74% 29.94 in 10.0 mi WSW 3.5 mph - N/A   Clear
4:55 AM 21.2 °F 14.9 °F 14.0 °F 74% 29.95 in 10.0 mi West 4.6 mph - N/A   Clear
5:15 AM 19.4 °F - 14.0 °F 80% 29.95 in 10.0 mi Calm Calm - N/A   Clear
5:35 AM 19.4 °F 12.8 °F 12.2 °F 74% 29.96 in 10.0 mi WNW 4.6 mph - N/A   Clear
5:55 AM 19.4 °F 14.3 °F 14.0 °F 80% 29.97 in 10.0 mi West 3.5 mph - N/A   Clear
6:15 AM 17.6 °F 10.7 °F 12.2 °F 79% 29.97 in 10.0 mi West 4.6 mph - N/A   Clear
6:55 AM 21.2 °F 14.9 °F 14.0 °F 74% 29.99 in 10.0 mi West 4.6 mph - N/A   Clear
7:15 AM 21.2 °F 16.4 °F 15.8 °F 80% 29.99 in 10.0 mi West 3.5 mph - N/A   Clear
7:35 AM 24.8 °F 20.5 °F 17.6 °F 74% 30.00 in 10.0 mi West 3.5 mph - N/A   Clear
7:55 AM 28.4 °F 23.3 °F 15.8 °F 59% 30.01 in 10.0 mi WNW 4.6 mph - N/A   Clear
8:15 AM 30.2 °F 26.7 °F 15.8 °F 55% 30.02 in 10.0 mi West 3.5 mph - N/A   Clear
8:35 AM 32.0 °F 25.6 °F 15.8 °F 51% 30.02 in 10.0 mi West 6.9 mph - N/A   Clear
8:55 AM 32.0 °F 25.6 °F 12.2 °F 44% 30.02 in 10.0 mi WNW 6.9 mph - N/A   Clear
9:15 AM 33.8 °F 26.4 °F 10.4 °F 38% 30.01 in 10.0 mi WNW 9.2 mph - N/A   Clear
9:35 AM 35.6 °F 26.6 °F 10.4 °F 35% 30.03 in 10.0 mi WNW 13.8 mph 17.3 mph N/A   Clear
9:55 AM 35.6 °F 27.1 °F 10.4 °F 35% 30.03 in 10.0 mi NW 12.7 mph 19.6 mph N/A   Clear
10:15 AM 37.4 °F 29.8 °F 10.4 °F 33% 30.02 in 10.0 mi NW 11.5 mph 17.3 mph N/A   Clear
10:35 AM 37.4 °F 29.8 °F 10.4 °F 33% 30.02 in 10.0 mi NW 11.5 mph 17.3 mph N/A   Clear
10:55 AM 37.4 °F 30.3 °F 10.4 °F 33% 30.01 in 10.0 mi WNW 10.4 mph 18.4 mph N/A   Clear
11:15 AM 39.2 °F 32.5 °F 10.4 °F 31% 30.02 in 10.0 mi WNW 10.4 mph 19.6 mph N/A   Clear
11:35 AM 39.2 °F 35.0 °F 10.4 °F 31% 30.01 in 10.0 mi West 5.8 mph 18.4 mph N/A   Clear
11:55 AM 42.8 °F 35.1 °F 12.2 °F 29% 30.01 in 10.0 mi West 16.1 mph 19.6 mph N/A   Clear
12:15 PM 42.8 °F 37.0 °F 12.2 °F 29% 30.00 in 10.0 mi NW 10.4 mph 23.0 mph N/A   Clear
12:55 PM 44.6 °F 39.7 °F 12.2 °F 27% 29.97 in 10.0 mi NNW 9.2 mph 16.1 mph N/A   Clear
1:15 PM 44.6 °F 41.4 °F 12.2 °F 27% 29.97 in 10.0 mi West 5.8 mph - N/A   Clear
1:55 PM 46.4 °F 41.5 °F 15.8 °F 29% 29.95 in 10.0 mi NW 10.4 mph - N/A   Clear
2:15 PM 46.4 °F 41.1 °F 15.8 °F 29% 29.95 in 10.0 mi West 11.5 mph - N/A   Clear
2:35 PM 48.2 °F - 15.8 °F 27% 29.94 in 10.0 mi WNW 9.2 mph 18.4 mph N/A   Clear
2:55 PM 48.2 °F - 15.8 °F 27% 29.95 in 10.0 mi WNW 4.6 mph 10.4 mph N/A   Clear
3:15 PM 48.2 °F - 15.8 °F 27% 29.94 in 10.0 mi West 10.4 mph - N/A   Clear
3:35 PM 48.2 °F - 15.8 °F 27% 29.94 in 10.0 mi WNW 11.5 mph 19.6 mph N/A   Clear
3:55 PM 50.0 °F - 15.8 °F 26% 29.94 in 10.0 mi West 10.4 mph - N/A   Clear
4:15 PM 50.0 °F - 14.0 °F 24% 29.93 in 10.0 mi WNW 9.2 mph - N/A   Clear
4:35 PM 50.0 °F - 12.2 °F 22% 29.93 in 10.0 mi WNW 6.9 mph - N/A   Clear
4:55 PM 50.0 °F - 12.2 °F 22% 29.94 in 10.0 mi WNW 9.2 mph - N/A   Clear
5:15 PM 48.2 °F - 12.2 °F 24% 29.94 in 10.0 mi WNW 5.8 mph - N/A   Clear
5:35 PM 48.2 °F - 12.2 °F 24% 29.94 in 10.0 mi WNW 9.2 mph - N/A   Clear
5:55 PM 46.4 °F 43.5 °F 10.4 °F 23% 29.95 in 10.0 mi NW 5.8 mph - N/A   Clear
6:15 PM 44.6 °F 40.7 °F 10.4 °F 25% 29.95 in 10.0 mi WNW 6.9 mph - N/A   Clear
6:35 PM 42.8 °F 40.1 °F 10.4 °F 27% 29.96 in 10.0 mi WNW 4.6 mph - N/A   Clear
6:55 PM 35.6 °F - 17.6 °F 48% 29.97 in 10.0 mi Calm Calm - N/A   Clear
7:15 PM 32.0 °F - 14.0 °F 48% 29.98 in 10.0 mi Calm Calm - N/A   Clear
7:35 PM 35.6 °F - 12.2 °F 38% 29.99 in 10.0 mi Calm Calm - N/A   Clear
7:55 PM 33.8 °F 30.8 °F 12.2 °F 41% 29.99 in 10.0 mi North 3.5 mph - N/A   Clear
8:15 PM 32.0 °F - 12.2 °F 44% 29.99 in 10.0 mi Calm Calm - N/A   Clear
8:35 PM 32.0 °F - 12.2 °F 44% 30.00 in 10.0 mi Calm Calm - N/A   Clear
8:55 PM 32.0 °F - 12.2 °F 44% 30.01 in 10.0 mi Calm Calm - N/A   Clear
9:35 PM 30.2 °F - 12.2 °F 47% 30.01 in 10.0 mi Calm Calm - N/A   Clear
9:55 PM 28.4 °F - 12.2 °F 51% 30.01 in 10.0 mi Calm Calm - N/A   Clear
10:15 PM 28.4 °F - 12.2 °F 51% 30.02 in 10.0 mi Calm Calm - N/A   Clear
10:35 PM 26.6 °F - 14.0 °F 59% 30.02 in 10.0 mi Calm Calm - N/A   Clear
10:55 PM 28.4 °F - 14.0 °F 55% 30.02 in 10.0 mi Calm Calm - N/A   Clear
11:15 PM 26.6 °F - 12.2 °F 55% 30.03 in 10.0 mi Calm Calm - N/A   Clear
11:35 PM 26.6 °F - 12.2 °F 55% 30.03 in 10.0 mi Calm Calm - N/A   Clear
11:55 PM 26.6 °F - 12.2 °F 55% 30.03 in 10.0 mi Calm Calm - N/A   Clear